Location: Rounton
(54.4000°N, 1.3500°W)
Time: 14:47:06
(UTC+00:00)

Transit 4A - Pass Details

Date: 04 December 2021
Orbit: 864 x 981 km, 66.8° (Epoch: 20 January)

Event Time Altitude Azimuth Distance (km) Brightness Sun altitude
Rises 23:42:16 0° 293° (WNW) 3,537 - -57.9°
Reaches altitude 10° 23:45:12 10° 306° (NW) 2,616 - -57.9°
Maximum altitude 23:50:13 26° 2° (N) 1,764 - -57.9°
Drops below altitude 10° 23:55:22 10° 57° (ENE) 2,683 - -58.0°
Sets 23:58:26 0° 70° (ENE) 3,646 - -58.0°
